sat.trackr.live / text

‹ back to catalog

STARLINK-34294

NORAD 64599 · 2025-137F

PAYLOAD ACTIVE UNKNOWN

§ Identity

Operator
Country
US
Launch date
2025-06-25
Launch site
AFETR
Launch vehicle
Mass (kg)
RCS (m²)

Purposes: comms

External: N2YO · Heavens-Above · Gunter

§ Orbital elements

Epoch: 2026-09-20T09:14:07.887264Z

Period
93.85 min
Inclination
53.1562°
Eccentricity
0.0000334
Mean motion
15.34404825 rev/d
Perigee alt
462.5 km
Apogee alt
462.9 km
Semi-major
6,840.8 km
B*
2.7743e-4
RAAN
148.0593°
Arg perigee
98.3390°
Mean anomaly
261.7650°
Rev number
7,058

§ Raw data

STARLINK-342941 64599U 25137F   26263.38481351  .00009010  00000+0  27743-3 0  99982 64599  53.1562 148.0593 0000334  98.3390 261.7650 15.34404825 70582

JSON: /api/v1/satellites/64599 · /tle

For live sub-satellite position, see the globe view (requires WebGL).

§ Visibility from observer

Set your observer location to see the next 7 days of passes ≥ 10°. The values pass through the URL so the page stays shareable.

No JS? Fill the form by hand. The geolocation button needs JavaScript.